Back to catalog

TOPSAT

AliveScienceSSO
NORAD 28891·PAYLOAD·🇬🇧 United Kingdom

Launched Oct 27, 2005 from Plesetsk Cosmodrome

Loading…

Next Passes (next 24 hours)

TLE

FreshSource: Space-Track

Epoch: Sep 14, 2026, 09:13 UTC

1 28891U 05043B   26257.38423042  .00000279  00000-0  61849-4 0  9998
2 28891  98.3216  36.4075 0015862   9.5322 350.6178 14.64600925113650

Track TOPSAT in real time with AllMySat

Download on the App Store